Location: Jastrz?bniki
(50.3667°N, 20.3833°E)
Time: 10:15:40
(UTC+00:00)

CZ-2C R/B - Pass Details

Date: 05 August 2024
Orbit: 703 x 904 km, 98.2° (Epoch: 06 September)

Event Time Altitude Azimuth Distance (km) Brightness Sun altitude
Rises 01:42:21 0° 7° (N) 3,130 7.1 -12.3°
Reaches altitude 10° 01:44:44 10° 359° (N) 2,222 6.1 -12.0°
Maximum altitude 01:49:07 35° 295° (WNW) 1,183 3.8 -11.5°
Enters shadow 01:52:47 15° 235° (SW) 1,988 4.5 -11.1°
